STARLINK-32592, 62035

Orbit data source: Space-Track

STARLINK-32592, 62035 is a payload satellite owned by SpaceX/Seattle (US) in LEO that was launched on Thu, 21 Nov 2024 UTC via an FALCON 9 launch vehicle from the Air Force Eastern Test Range (AFETR). Payload-class satellites include a variety of spacecraft equipped with specific instruments for various scientific and technological missions. These include communications satellites like Starlink; space stations such as the ISS; scientific satellites like the Hubble; Earth observation satellites from companies like Planet Labs, Umbra, and HawkEye 360; GPS; miniature CubeSats for education and research; and military/defense satellites.

Loading next visibility...
Identifier
62035, 2024-216D
Orbit
LEO
Last TLE update
4 hours ago
Origin
Manufacturer
SpaceX/Seattle
Mission
Operational Commercial Communications
Bus & Motor
STARLINK V2M, Unknown motor
Mass
730 kg wet, ~700 kg dry
Launch date (UTC)
2024-11-21 (7 months ago)
Launch vehicle
FALCON 9
Launch site
Air Force Eastern Test Range (AFETR)
Object type
Payload
Rocket body
Debris
Shape & HBR
Box + 2 Pan, 29 m
Radar Cross Section
36.964 m², Large (>1 m²)

Expand to show TLE details & history

TLE from 4 hours ago
0 STARLINK-32592
1 62035U 24216D   25182.23259079  .00015963  00000-0  58814-3 0  9999
2 62035  42.9972 243.7603 0001474 245.5318 114.5380 15.27591008 35312
Epoch: 2025-07-01T05:34Z
TLE epoch observation values (Epoch: 2025-07-01T05:34:55.844Z)
Latitude
-0°
Longitude
-119.50338°
Altitude
483.211 km
Speed
7.625 km/s
True Right ascension
16h 15m 02s
True Declination
0° 00' 00"
Sunlit
Object was in full shadow at epoch
Visualization orbit readout
Latitude
-20.22202°
Longitude
82.67586°
Altitude
486.69 km
Speed
7.623 km/s
Apparent Right ascension
07h 14m 31s
Apparent Declination
-32° 18' 44"
Sunlit
Object is in daylight
Visualization observer readout
Local Sidereal Time
21:16:31
Azimuth
82.392° E
Elevation
-64.359°
Doppler factor
1
Orbital elements
Apogee altitude
485.973 km
Perigee altitude
483.95 km
Semi-major axis
6,863.099 km
Eccentricity
0.00015
Inclination
42.9972°
RAAN
243.7603°
Arg. of periapsis
245.5318°
True anomaly
Unknown
Mean anomaly
114.538°
Eccentric anomaly
Unknown
Mean motion
3.81736 °/min
Orbital period
94.31 mins
BSTAR
0.00058814
Loading maneuver chart data...
Loading SW <> Apogee altitude chart data...
Loading historical data...
Loading historical data...
Loading historical data...
Loading historical data...
Loading historical data...
Loading historical data...
Loading historical data...

STARLINK-32592 Visibility forecast

Observer location: undefined°, undefined°

Span
Click to sort rows by Start time (UTC) header in descending order
Start Az.
Max El. time (UTC)
Max El. Az.
Max El.
End time (UTC)
End Az.
6 mins2025-07-01 10:38:12.214Z286.001° WNW2025-07-01 10:41:12.214Z348.485° N37.799°2025-07-01 10:44:12.214Z75.326° E
6 mins2025-07-01 12:18:12.214Z287.157° WNW2025-07-01 12:20:12.214Z276.072° WNW43.748°2025-07-01 12:24:12.214Z111.173° ESE
4 mins2025-07-02 06:54:12.214Z186.338° SSW2025-07-02 06:56:12.214Z133.726° SE24.136°2025-07-02 06:58:12.214Z95.181° ESE
5 mins2025-07-02 08:32:12.214Z258.071° W2025-07-02 08:34:12.214Z290.849° WNW43.841°2025-07-02 08:37:12.214Z70.003° E
|